Flag for USA Past Weather in Furnace Creek (Death Valley), California, USA — Yesterday and Last 2 Weeks

Now
96 °F

Passing clouds.


Feels Like: 93 °F
Forecast: 90 / 113 °F
Wind: 3 mph from North

Location: Desert Rock Airport

Current Time: Jun 30, 2016 at 12:30:22 PM

Latest Report: Jun 30, 2016 at 11:53 AM


Visibility: 10 mi

Pressure: 29.80 "Hg

Humidity: 20%

Dew Point: 49 °F

Location of Furnace Creek (Death Valley)Location

Past Weather in Furnace Creek (Death Valley) — Graph

°F

Furnace Creek (Death Valley) Temperature Yesterday

Maximum temperature yesterday: 103 °F (at 3:53 PM)
Minimum temperature yesterday: 76 °F (at 4:53 AM)
Average temperature yesterday: 92 °F

High & Low Weather Summary for the Past Weeks

 TemperatureHumidityPressure
High110 °F (Jun 27, 3:53 PM)35% (Jun 16, 4:53 AM)29.97 "Hg (Jun 16, 4:53 AM)
Low64 °F (Jun 16, 4:53 AM)4% (Jun 18, 1:53 PM)29.57 "Hg (Jun 15, 3:53 PM)
Average88 °F13%29.80 "Hg
* Reported Jun 15 10:53 AM — Jun 30 10:53 AM, Furnace Creek (Death Valley), Weather by CustomWeather, © 2016

Note: Actual official high and low records may vary slightly from our data, if they occured in-between our weather recording intervals... More about our weather records

Advertising

Furnace Creek (Death Valley) Weather History for the Previous 24 Hours

Scroll right to see more
 ConditionsComfort  
Time TempWeatherWind HumidityBarometerVisibility
10:53 AM
Thu, Jun 30
95 °FSunny.6 mph20%29.81 "Hg10 mi
9:53 AM92 °FSunny.No wind23%29.80 "Hg10 mi
8:53 AM90 °FSunny.No wind23%29.81 "Hg10 mi
7:53 AM87 °FSunny.3 mph23%29.79 "Hg10 mi
6:53 AM84 °FSunny.8 mph26%29.78 "Hg10 mi
5:53 AM78 °FClear.5 mph32%29.78 "Hg10 mi
4:53 AM79 °FClear.3 mph29%29.77 "Hg10 mi
3:53 AM79 °FClear.6 mph29%29.76 "Hg10 mi
2:53 AM81 °FClear.7 mph27%29.76 "Hg10 mi
1:53 AM83 °FClear.3 mph26%29.76 "Hg10 mi
12:53 AM84 °FClear.12 mph26%29.77 "Hg10 mi
11:53 PM
Wed, Jun 29
86 °FClear.14 mph24%29.78 "Hg10 mi
10:53 PM87 °FClear.9 mph24%29.80 "Hg10 mi
9:53 PM89 °FClear.17 mph23%29.78 "Hg10 mi
8:53 PM89 °FSunny.26 mph25%29.76 "Hg10 mi
7:53 PM97 °FSunny.13 mph16%29.74 "Hg10 mi
6:53 PM102 °FSunny.12 mph9%29.71 "Hg10 mi
5:53 PM102 °FSunny.6 mph11%29.71 "Hg10 mi
4:53 PM103 °FSunny.7 mph11%29.72 "Hg10 mi
3:53 PM103 °FSunny.14 mph11%29.73 "Hg10 mi
2:53 PM101 °FSunny.12 mph13%29.75 "Hg10 mi
2:02 PM102 °FPassing clouds.7 mph13%29.95 "Hg10 mi
12:53 PM102 °FSunny.6 mph14%29.80 "Hg10 mi
Weather by CustomWeather, © 2016

See weather overviewHow to use our weather pages